contact:dominique.lefevre@mio.osupytheas.fr, maurice.libes@osupytheas.fr, didier.mallarino@osupytheas.fr
Project:EMSO http://www.emso-fr.org/EMSO-France
Depth: 2436.0 m
Title:EMSO Ligure Ouest : Data MII capteur MICROCAT
DateTime_Computer,Latitude,Longitude,Temperature,Conductivity,Pressure,DateTime_Instrument
DateTime_Computer,Latitude,Longitude,degC,S m-1,dbar,DateTime_Instrument
2021-07-04T00:02:27Z,42.805,6.029,13.3014,4.60031,2470.38,2021-7-04T02:03:42Z
2021-07-04T00:05:30Z,42.805,6.029,13.3015,4.60048,2470.38,2021-7-04T02:06:45Z
2021-07-04T00:08:33Z,42.805,6.029,13.3022,4.60029,2470.404,2021-7-04T02:09:48Z
2021-07-04T00:11:36Z,42.805,6.029,13.3023,4.60043,2470.404,2021-7-04T02:12:51Z
2021-07-04T00:14:40Z,42.805,6.029,13.3030,4.60019,2470.404,2021-7-04T02:15:55Z
2021-07-04T00:17:43Z,42.805,6.029,13.3021,4.60020,2470.366,2021-7-04T02:18:58Z
2021-07-04T00:20:46Z,42.805,6.029,13.3021,4.60031,2470.38,2021-7-04T02:22:01Z
2021-07-04T00:23:49Z,42.805,6.029,13.3026,4.60037,2470.366,2021-7-04T02:25:04Z
2021-07-04T00:26:52Z,42.805,6.029,13.3020,4.60028,2470.343,2021-7-04T02:28:07Z
2021-07-04T00:29:55Z,42.805,6.029,13.3007,4.60033,2470.366,2021-7-04T02:31:10Z
2021-07-04T00:32:58Z,42.805,6.029,13.3019,4.60034,2470.39,2021-7-04T02:34:13Z
2021-07-04T00:36:01Z,42.805,6.029,13.3018,4.60043,2470.404,2021-7-04T02:37:16Z
2021-07-04T00:39:04Z,42.805,6.029,13.3024,4.60042,2470.404,2021-7-04T02:40:20Z
2021-07-04T00:42:08Z,42.805,6.029,13.3019,4.60021,2470.39,2021-7-04T02:43:23Z
2021-07-04T00:45:11Z,42.805,6.029,13.3023,4.60060,2470.366,2021-7-04T02:46:26Z
2021-07-04T00:48:14Z,42.805,6.029,13.3025,4.60035,2470.404,2021-7-04T02:49:29Z
2021-07-04T00:51:17Z,42.805,6.029,13.3029,4.60045,2470.366,2021-7-04T02:52:32Z
2021-07-04T00:54:20Z,42.805,6.029,13.3014,4.60044,2470.366,2021-7-04T02:55:35Z
2021-07-04T00:57:23Z,42.805,6.029,13.3030,4.60030,2470.366,2021-7-04T02:58:38Z
2021-07-04T01:00:26Z,42.805,6.029,13.3006,4.60044,2470.366,2021-7-04T03:01:41Z
2021-07-04T01:03:29Z,42.805,6.029,13.3024,4.60042,2470.343,2021-7-04T03:04:44Z
2021-07-04T01:06:33Z,42.805,6.029,13.3021,4.60033,2470.38,2021-7-04T03:07:48Z
2021-07-04T01:09:36Z,42.805,6.029,13.3026,4.60047,2470.38,2021-7-04T03:10:51Z
2021-07-04T01:12:39Z,42.805,6.029,13.3026,4.60024,2470.404,2021-7-04T03:13:54Z
2021-07-04T01:15:42Z,42.805,6.029,13.3021,4.60042,2470.39,2021-7-04T03:16:57Z
2021-07-04T01:18:45Z,42.805,6.029,13.3025,4.60024,2470.38,2021-7-04T03:20:00Z
2021-07-04T01:21:48Z,42.805,6.029,13.3033,4.60033,2470.366,2021-7-04T03:23:03Z
2021-07-04T01:24:51Z,42.805,6.029,13.3014,4.60033,2470.404,2021-7-04T03:26:06Z
2021-07-04T01:27:54Z,42.805,6.029,13.3014,4.60028,2470.404,2021-7-04T03:29:09Z
2021-07-04T01:30:57Z,42.805,6.029,13.3027,4.60028,2470.39,2021-7-04T03:32:13Z
2021-07-04T01:34:01Z,42.805,6.029,13.3020,4.60022,2470.404,2021-7-04T03:35:16Z
2021-07-04T01:37:04Z,42.805,6.029,13.3032,4.60036,2470.38,2021-7-04T03:38:19Z
2021-07-04T01:40:07Z,42.805,6.029,13.3026,4.60033,2470.404,2021-7-04T03:41:22Z
2021-07-04T01:43:10Z,42.805,6.029,13.3027,4.60051,2470.38,2021-7-04T03:44:25Z
2021-07-04T01:46:13Z,42.805,6.029,13.3031,4.60032,2470.427,2021-7-04T03:47:28Z
2021-07-04T01:49:16Z,42.805,6.029,13.3029,4.60034,2470.404,2021-7-04T03:50:31Z
2021-07-04T01:52:19Z,42.805,6.029,13.3032,4.60073,2470.366,2021-7-04T03:53:34Z
2021-07-04T01:55:22Z,42.805,6.029,13.3021,4.60040,2470.39,2021-7-04T03:56:37Z
2021-07-04T01:58:26Z,42.805,6.029,13.3010,4.60074,2470.404,2021-7-04T03:59:41Z
2021-07-04T02:01:29Z,42.805,6.029,13.3021,4.60038,2470.39,2021-7-04T04:02:44Z
2021-07-04T02:04:32Z,42.805,6.029,13.3034,4.60037,2470.39,2021-7-04T04:05:47Z
2021-07-04T02:07:35Z,42.805,6.029,13.3014,4.60034,2470.404,2021-7-04T04:08:50Z
2021-07-04T02:10:38Z,42.805,6.029,13.3024,4.60064,2470.404,2021-7-04T04:11:53Z
2021-07-04T02:13:41Z,42.805,6.029,13.3015,4.60036,2470.404,2021-7-04T04:14:56Z
2021-07-04T02:16:44Z,42.805,6.029,13.3023,4.60031,2470.427,2021-7-04T04:17:59Z
2021-07-04T02:19:47Z,42.805,6.029,13.3026,4.60031,2470.39,2021-7-04T04:21:02Z
2021-07-04T02:22:50Z,42.805,6.029,13.3038,4.60019,2470.366,2021-7-04T04:24:06Z
2021-07-04T02:25:54Z,42.805,6.029,13.3021,4.60036,2470.38,2021-7-04T04:27:09Z
2021-07-04T02:28:57Z,42.805,6.029,13.3018,4.60031,2470.413,2021-7-04T04:30:12Z
2021-07-04T02:32:00Z,42.805,6.029,13.3015,4.60049,2470.39,2021-7-04T04:33:15Z
2021-07-04T02:35:03Z,42.805,6.029,13.3024,4.60034,2470.39,2021-7-04T04:36:18Z
2021-07-04T02:38:06Z,42.805,6.029,13.3019,4.60050,2470.366,2021-7-04T04:39:21Z
2021-07-04T02:41:09Z,42.805,6.029,13.3038,4.60029,2470.366,2021-7-04T04:42:24Z
2021-07-04T02:44:12Z,42.805,6.029,13.3013,4.60021,2470.39,2021-7-04T04:45:27Z
2021-07-04T02:47:15Z,42.805,6.029,13.3019,4.60056,2470.413,2021-7-04T04:48:30Z
2021-07-04T02:50:19Z,42.805,6.029,13.3015,4.60036,2470.45,2021-7-04T04:51:34Z
2021-07-04T02:53:22Z,42.805,6.029,13.3007,4.60045,2470.39,2021-7-04T04:54:37Z
2021-07-04T02:56:25Z,42.805,6.029,13.3041,4.60031,2470.38,2021-7-04T04:57:40Z
2021-07-04T02:59:28Z,42.805,6.029,13.3006,4.60019,2470.39,2021-7-04T05:00:43Z
2021-07-04T03:02:31Z,42.805,6.029,13.3015,4.60033,2470.39,2021-7-04T05:03:46Z
2021-07-04T03:05:34Z,42.805,6.029,13.3026,4.60025,2470.427,2021-7-04T05:06:49Z
2021-07-04T03:08:37Z,42.805,6.029,13.3008,4.60039,2470.366,2021-7-04T05:09:52Z
2021-07-04T03:11:40Z,42.805,6.029,13.3015,4.60054,2470.404,2021-7-04T05:12:55Z
2021-07-04T03:14:43Z,42.805,6.029,13.3046,4.60028,2470.38,2021-7-04T05:15:59Z
2021-07-04T03:17:47Z,42.805,6.029,13.3024,4.60017,2470.39,2021-7-04T05:19:02Z
2021-07-04T03:20:50Z,42.805,6.029,13.3033,4.60026,2470.413,2021-7-04T05:22:05Z
2021-07-04T03:23:53Z,42.805,6.029,13.3026,4.60032,2470.39,2021-7-04T05:25:08Z
2021-07-04T03:26:56Z,42.805,6.029,13.3021,4.60029,2470.38,2021-7-04T05:28:11Z
2021-07-04T03:29:59Z,42.805,6.029,13.3039,4.60028,2470.38,2021-7-04T05:31:14Z
2021-07-04T03:33:02Z,42.805,6.029,13.3019,4.60036,2470.357,2021-7-04T05:34:17Z
2021-07-04T03:36:05Z,42.805,6.029,13.3015,4.60034,2470.366,2021-7-04T05:37:20Z
2021-07-04T03:39:08Z,42.805,6.029,13.3011,4.60045,2470.39,2021-7-04T05:40:23Z
2021-07-04T03:42:12Z,42.805,6.029,13.3016,4.60053,2470.366,2021-7-04T05:43:27Z
2021-07-04T03:45:15Z,42.805,6.029,13.3014,4.60035,2470.404,2021-7-04T05:46:30Z
2021-07-04T03:48:18Z,42.805,6.029,13.3021,4.60052,2470.366,2021-7-04T05:49:33Z
2021-07-04T03:51:21Z,42.805,6.029,13.3023,4.60021,2470.366,2021-7-04T05:52:36Z
2021-07-04T03:54:24Z,42.805,6.029,13.3027,4.60029,2470.404,2021-7-04T05:55:39Z
2021-07-04T03:57:27Z,42.805,6.029,13.3016,4.60024,2470.366,2021-7-04T05:58:42Z
2021-07-04T04:00:30Z,42.805,6.029,13.3024,4.60025,2470.366,2021-7-04T06:01:45Z
2021-07-04T04:03:33Z,42.805,6.029,13.3028,4.60024,2470.413,2021-7-04T06:04:48Z
2021-07-04T04:06:36Z,42.805,6.029,13.3010,4.60049,2470.366,2021-7-04T06:07:52Z
2021-07-04T04:09:40Z,42.805,6.029,13.3019,4.60045,2470.39,2021-7-04T06:10:55Z
2021-07-04T04:12:43Z,42.805,6.029,13.3025,4.60026,2470.366,2021-7-04T06:13:58Z
2021-07-04T04:15:46Z,42.805,6.029,13.3007,4.60059,2470.39,2021-7-04T06:17:01Z
2021-07-04T04:18:49Z,42.805,6.029,13.3008,4.60014,2470.366,2021-7-04T06:20:04Z
2021-07-04T04:21:52Z,42.805,6.029,13.3017,4.60026,2470.427,2021-7-04T06:23:07Z
2021-07-04T04:24:55Z,42.805,6.029,13.3005,4.60037,2470.413,2021-7-04T06:26:10Z
2021-07-04T04:27:58Z,42.805,6.029,13.3006,4.60064,2470.404,2021-7-04T06:29:13Z
2021-07-04T04:31:01Z,42.805,6.029,13.3008,4.60026,2470.427,2021-7-04T06:32:16Z
2021-07-04T04:34:05Z,42.805,6.029,13.3009,4.60029,2470.366,2021-7-04T06:35:20Z
2021-07-04T04:37:08Z,42.805,6.029,13.3019,4.60026,2470.39,2021-7-04T06:38:23Z
2021-07-04T04:40:11Z,42.805,6.029,13.3018,4.60039,2470.38,2021-7-04T06:41:26Z
2021-07-04T04:43:14Z,42.805,6.029,13.3011,4.60054,2470.366,2021-7-04T06:44:29Z
2021-07-04T04:46:17Z,42.805,6.029,13.3005,4.60037,2470.38,2021-7-04T06:47:32Z
2021-07-04T04:49:20Z,42.805,6.029,13.3015,4.60034,2470.38,2021-7-04T06:50:35Z
2021-07-04T04:52:23Z,42.805,6.029,13.3009,4.60022,2470.366,2021-7-04T06:53:38Z
2021-07-04T04:55:26Z,42.805,6.029,13.3009,4.60032,2470.353,2021-7-04T06:56:41Z
2021-07-04T04:58:29Z,42.805,6.029,13.3019,4.60045,2470.366,2021-7-04T06:59:45Z
2021-07-04T05:01:33Z,42.805,6.029,13.3015,4.60112,2470.366,2021-7-04T07:02:48Z
2021-07-04T05:04:36Z,42.805,6.029,13.3024,4.60044,2470.38,2021-7-04T07:05:51Z
2021-07-04T05:07:39Z,42.805,6.029,13.3033,4.60033,2470.427,2021-7-04T07:08:54Z
2021-07-04T05:10:42Z,42.805,6.029,13.3021,4.60049,2470.38,2021-7-04T07:11:57Z
2021-07-04T05:13:45Z,42.805,6.029,13.3030,4.60038,2470.366,2021-7-04T07:15:00Z
2021-07-04T05:16:48Z,42.805,6.029,13.3016,4.60047,2470.38,2021-7-04T07:18:03Z
2021-07-04T05:19:51Z,42.805,6.029,13.3012,4.60062,2470.366,2021-7-04T07:21:06Z
2021-07-04T05:22:54Z,42.805,6.029,13.3029,4.60052,2470.38,2021-7-04T07:24:09Z
2021-07-04T05:25:58Z,42.805,6.029,13.3023,4.60029,2470.357,2021-7-04T07:27:13Z
2021-07-04T05:29:01Z,42.805,6.029,13.3009,4.60016,2470.366,2021-7-04T07:30:16Z
2021-07-04T05:32:04Z,42.805,6.029,13.3009,4.60026,2470.38,2021-7-04T07:33:19Z
2021-07-04T05:35:07Z,42.805,6.029,13.3019,4.60045,2470.404,2021-7-04T07:36:22Z
2021-07-04T05:38:10Z,42.805,6.029,13.3027,4.60025,2470.38,2021-7-04T07:39:25Z
2021-07-04T05:41:13Z,42.805,6.029,13.3020,4.60043,2470.366,2021-7-04T07:42:28Z
2021-07-04T05:44:16Z,42.805,6.029,13.3021,4.60041,2470.38,2021-7-04T07:45:31Z
2021-07-04T05:47:19Z,42.805,6.029,13.3024,4.60039,2470.366,2021-7-04T07:48:34Z
2021-07-04T05:50:22Z,42.805,6.029,13.3036,4.60033,2470.366,2021-7-04T07:51:38Z
2021-07-04T05:53:26Z,42.805,6.029,13.3015,4.60031,2470.343,2021-7-04T07:54:41Z
2021-07-04T05:56:29Z,42.805,6.029,13.3031,4.60057,2470.366,2021-7-04T07:57:44Z
2021-07-04T05:59:32Z,42.805,6.029,13.3038,4.60037,2470.343,2021-7-04T08:00:47Z
2021-07-04T06:02:35Z,42.805,6.029,13.3010,4.60024,2470.38,2021-7-04T08:03:50Z
2021-07-04T06:05:38Z,42.805,6.029,13.3021,4.60029,2470.366,2021-7-04T08:06:53Z
2021-07-04T06:08:41Z,42.805,6.029,13.3023,4.60052,2470.366,2021-7-04T08:09:56Z
2021-07-04T06:11:44Z,42.805,6.029,13.3012,4.60054,2470.357,2021-7-04T08:12:59Z
2021-07-04T06:14:47Z,42.805,6.029,13.3018,4.60059,2470.366,2021-7-04T08:16:02Z
2021-07-04T06:17:51Z,42.805,6.029,13.3029,4.60031,2470.334,2021-7-04T08:19:06Z
2021-07-04T06:20:54Z,42.805,6.029,13.3019,4.60027,2470.38,2021-7-04T08:22:09Z
2021-07-04T06:23:57Z,42.805,6.029,13.3033,4.60059,2470.32,2021-7-04T08:25:12Z
2021-07-04T06:27:00Z,42.805,6.029,13.3040,4.60034,2470.366,2021-7-04T08:28:15Z
2021-07-04T06:30:03Z,42.805,6.029,13.3026,4.60011,2470.357,2021-7-04T08:31:18Z
2021-07-04T06:33:06Z,42.805,6.029,13.3039,4.60028,2470.32,2021-7-04T08:34:21Z
2021-07-04T06:36:09Z,42.805,6.029,13.3032,4.60042,2470.357,2021-7-04T08:37:24Z
2021-07-04T06:39:12Z,42.805,6.029,13.3024,4.60046,2470.366,2021-7-04T08:40:27Z
2021-07-04T06:42:15Z,42.805,6.029,13.3041,4.60051,2470.357,2021-7-04T08:43:31Z
2021-07-04T06:45:19Z,42.805,6.029,13.3027,4.60063,2470.334,2021-7-04T08:46:34Z
2021-07-04T06:48:22Z,42.805,6.029,13.3024,4.60043,2470.357,2021-7-04T08:49:37Z
2021-07-04T06:51:25Z,42.805,6.029,13.3019,4.60049,2470.32,2021-7-04T08:52:40Z
2021-07-04T06:54:28Z,42.805,6.029,13.3026,4.60029,2470.334,2021-7-04T08:55:43Z
2021-07-04T06:57:31Z,42.805,6.029,13.3016,4.60031,2470.32,2021-7-04T08:58:46Z
2021-07-04T07:00:34Z,42.805,6.029,13.3009,4.60016,2470.357,2021-7-04T09:01:49Z
2021-07-04T07:03:37Z,42.805,6.029,13.3010,4.60050,2470.32,2021-7-04T09:04:52Z
2021-07-04T07:06:40Z,42.805,6.029,13.3018,4.60028,2470.357,2021-7-04T09:07:55Z
2021-07-04T07:09:44Z,42.805,6.029,13.3006,4.60023,2470.306,2021-7-04T09:10:59Z
2021-07-04T07:12:47Z,42.805,6.029,13.3015,4.60017,2470.357,2021-7-04T09:14:02Z
2021-07-04T07:15:50Z,42.805,6.029,13.3019,4.60019,2470.334,2021-7-04T09:17:05Z
2021-07-04T07:18:53Z,42.805,6.029,13.3015,4.60020,2470.297,2021-7-04T09:20:08Z
2021-07-04T07:21:56Z,42.805,6.029,13.3019,4.60027,2470.334,2021-7-04T09:23:11Z
2021-07-04T07:24:59Z,42.805,6.029,13.3013,4.60025,2470.32,2021-7-04T09:26:14Z
2021-07-04T07:28:02Z,42.805,6.029,13.3011,4.60032,2470.343,2021-7-04T09:29:17Z
2021-07-04T07:31:05Z,42.805,6.029,13.3014,4.60014,2470.334,2021-7-04T09:32:20Z
2021-07-04T07:34:08Z,42.805,6.029,13.3013,4.60022,2470.297,2021-7-04T09:35:24Z
2021-07-04T07:37:12Z,42.805,6.029,13.3004,4.60029,2470.297,2021-7-04T09:38:27Z
2021-07-04T07:40:15Z,42.805,6.029,13.3012,4.60028,2470.31,2021-7-04T09:41:30Z
2021-07-04T07:43:18Z,42.805,6.029,13.3014,4.60029,2470.32,2021-7-04T09:44:33Z
2021-07-04T07:46:21Z,42.805,6.029,13.3023,4.60018,2470.287,2021-7-04T09:47:36Z
2021-07-04T07:49:24Z,42.805,6.029,13.3017,4.60031,2470.32,2021-7-04T09:50:39Z
2021-07-04T07:52:27Z,42.805,6.029,13.3015,4.60029,2470.334,2021-7-04T09:53:42Z
2021-07-04T07:55:30Z,42.805,6.029,13.3006,4.60026,2470.31,2021-7-04T09:56:45Z
2021-07-04T07:58:33Z,42.805,6.029,13.3015,4.60030,2470.31,2021-7-04T09:59:49Z
2021-07-04T08:01:37Z,42.805,6.029,13.3026,4.60024,2470.297,2021-7-04T10:02:52Z
2021-07-04T08:04:40Z,42.805,6.029,13.3026,4.60031,2470.31,2021-7-04T10:05:55Z
2021-07-04T08:07:43Z,42.805,6.029,13.3019,4.60034,2470.32,2021-7-04T10:08:58Z
2021-07-04T08:10:46Z,42.805,6.029,13.3017,4.60024,2470.32,2021-7-04T10:12:01Z
2021-07-04T08:13:49Z,42.805,6.029,13.3011,4.60021,2470.31,2021-7-04T10:15:04Z
2021-07-04T08:16:52Z,42.805,6.029,13.3021,4.60026,2470.32,2021-7-04T10:18:07Z
2021-07-04T08:19:55Z,42.805,6.029,13.3013,4.60039,2470.297,2021-7-04T10:21:10Z
2021-07-04T08:22:58Z,42.805,6.029,13.3020,4.60021,2470.297,2021-7-04T10:24:13Z
2021-07-04T08:26:01Z,42.805,6.029,13.3025,4.60018,2470.297,2021-7-04T10:27:17Z
2021-07-04T08:29:05Z,42.805,6.029,13.3014,4.60021,2470.31,2021-7-04T10:30:20Z
2021-07-04T08:32:08Z,42.805,6.029,13.3015,4.60019,2470.31,2021-7-04T10:33:23Z
2021-07-04T08:35:11Z,42.805,6.029,13.3013,4.60043,2470.273,2021-7-04T10:36:26Z
2021-07-04T08:38:14Z,42.805,6.029,13.3021,4.60032,2470.273,2021-7-04T10:39:29Z
2021-07-04T08:41:17Z,42.805,6.029,13.3019,4.60026,2470.31,2021-7-04T10:42:32Z
2021-07-04T08:44:20Z,42.805,6.029,13.3024,4.60024,2470.273,2021-7-04T10:45:35Z
2021-07-04T08:47:23Z,42.805,6.029,13.3024,4.60017,2470.273,2021-7-04T10:48:38Z
2021-07-04T08:50:27Z,42.805,6.029,13.3028,4.60028,2470.31,2021-7-04T10:51:42Z
2021-07-04T08:53:30Z,42.805,6.029,13.3022,4.60020,2470.297,2021-7-04T10:54:45Z
2021-07-04T08:56:33Z,42.805,6.029,13.3015,4.60024,2470.264,2021-7-04T10:57:48Z
2021-07-04T08:59:36Z,42.805,6.029,13.3020,4.60016,2470.334,2021-7-04T11:00:51Z
2021-07-04T09:02:39Z,42.805,6.029,13.3014,4.60029,2470.264,2021-7-04T11:03:54Z
2021-07-04T09:05:42Z,42.805,6.029,13.3018,4.60039,2470.273,2021-7-04T11:06:57Z
2021-07-04T09:08:45Z,42.805,6.029,13.3016,4.60027,2470.273,2021-7-04T11:10:00Z
2021-07-04T09:11:48Z,42.805,6.029,13.3027,4.60027,2470.273,2021-7-04T11:13:03Z
2021-07-04T09:14:51Z,42.805,6.029,13.3023,4.60026,2470.297,2021-7-04T11:16:07Z
2021-07-04T09:17:55Z,42.805,6.029,13.3021,4.60016,2470.287,2021-7-04T11:19:10Z
2021-07-04T09:20:58Z,42.805,6.029,13.3025,4.60014,2470.264,2021-7-04T11:22:13Z
2021-07-04T09:24:01Z,42.805,6.029,13.3014,4.60023,2470.31,2021-7-04T11:25:16Z
2021-07-04T09:27:04Z,42.805,6.029,13.3024,4.60026,2470.273,2021-7-04T11:28:19Z
2021-07-04T09:30:07Z,42.805,6.029,13.3017,4.60029,2470.25,2021-7-04T11:31:22Z
2021-07-04T09:33:10Z,42.805,6.029,13.3033,4.60019,2470.297,2021-7-04T11:34:25Z
2021-07-04T09:36:13Z,42.805,6.029,13.3027,4.60015,2470.273,2021-7-04T11:37:28Z
2021-07-04T09:39:16Z,42.805,6.029,13.3022,4.60026,2470.273,2021-7-04T11:40:32Z
2021-07-04T09:42:20Z,42.805,6.029,13.3026,4.60020,2470.31,2021-7-04T11:43:35Z
2021-07-04T09:45:23Z,42.805,6.029,13.3029,4.60016,2470.25,2021-7-04T11:46:38Z
2021-07-04T09:48:26Z,42.805,6.029,13.3024,4.60025,2470.287,2021-7-04T11:49:41Z
2021-07-04T09:51:29Z,42.805,6.029,13.3019,4.60021,2470.273,2021-7-04T11:52:44Z
2021-07-04T09:54:32Z,42.805,6.029,13.3026,4.60009,2470.287,2021-7-04T11:55:47Z
2021-07-04T09:57:35Z,42.805,6.029,13.3019,4.60016,2470.273,2021-7-04T11:58:50Z
2021-07-04T10:00:38Z,42.805,6.029,13.3011,4.60020,2470.287,2021-7-04T12:01:53Z
2021-07-04T10:03:41Z,42.805,6.029,13.3030,4.60023,2470.297,2021-7-04T12:04:57Z
2021-07-04T10:06:45Z,42.805,6.029,13.3027,4.60021,2470.273,2021-7-04T12:08:00Z
2021-07-04T10:09:48Z,42.805,6.029,13.3030,4.60034,2470.264,2021-7-04T12:11:03Z
2021-07-04T10:12:51Z,42.805,6.029,13.3021,4.60026,2470.273,2021-7-04T12:14:06Z
2021-07-04T10:15:54Z,42.805,6.029,13.3027,4.60031,2470.273,2021-7-04T12:17:09Z
2021-07-04T10:18:57Z,42.805,6.029,13.3022,4.60018,2470.273,2021-7-04T12:20:12Z
2021-07-04T10:22:00Z,42.805,6.029,13.3030,4.60026,2470.273,2021-7-04T12:23:15Z
2021-07-04T10:25:03Z,42.805,6.029,13.3020,4.60039,2470.264,2021-7-04T12:26:18Z
2021-07-04T10:28:06Z,42.805,6.029,13.3022,4.60020,2470.264,2021-7-04T12:29:21Z
2021-07-04T10:31:10Z,42.805,6.029,13.3029,4.60023,2470.297,2021-7-04T12:32:25Z
2021-07-04T10:34:13Z,42.805,6.029,13.3014,4.60011,2470.287,2021-7-04T12:35:28Z
2021-07-04T10:37:16Z,42.805,6.029,13.3022,4.60017,2470.287,2021-7-04T12:38:31Z
2021-07-04T10:40:19Z,42.805,6.029,13.3020,4.60025,2470.273,2021-7-04T12:41:34Z
2021-07-04T10:43:22Z,42.805,6.029,13.3031,4.60022,2470.25,2021-7-04T12:44:37Z
2021-07-04T10:46:25Z,42.805,6.029,13.3023,4.60018,2470.297,2021-7-04T12:47:40Z
2021-07-04T10:49:28Z,42.805,6.029,13.3039,4.60015,2470.273,2021-7-04T12:50:43Z
2021-07-04T10:52:31Z,42.805,6.029,13.3026,4.60014,2470.264,2021-7-04T12:53:46Z
2021-07-04T10:55:34Z,42.805,6.029,13.3015,4.60016,2470.273,2021-7-04T12:56:50Z
2021-07-04T10:58:38Z,42.805,6.029,13.3016,4.60021,2470.273,2021-7-04T12:59:53Z
2021-07-04T11:01:41Z,42.805,6.029,13.3025,4.60023,2470.287,2021-7-04T13:02:56Z
2021-07-04T11:04:44Z,42.805,6.029,13.3019,4.60032,2470.297,2021-7-04T13:05:59Z
2021-07-04T11:07:47Z,42.805,6.029,13.3021,4.60022,2470.297,2021-7-04T13:09:02Z
2021-07-04T11:10:50Z,42.805,6.029,13.3015,4.60020,2470.287,2021-7-04T13:12:05Z
2021-07-04T11:13:53Z,42.805,6.029,13.3021,4.60021,2470.287,2021-7-04T13:15:08Z
2021-07-04T11:16:56Z,42.805,6.029,13.3015,4.60014,2470.287,2021-7-04T13:18:11Z
2021-07-04T11:19:59Z,42.805,6.029,13.3018,4.60024,2470.297,2021-7-04T13:21:15Z
2021-07-04T11:23:03Z,42.805,6.029,13.3023,4.60014,2470.31,2021-7-04T13:24:18Z
2021-07-04T11:26:06Z,42.805,6.029,13.3019,4.60022,2470.297,2021-7-04T13:27:21Z
2021-07-04T11:29:09Z,42.805,6.029,13.3019,4.60023,2470.273,2021-7-04T13:30:24Z
2021-07-04T11:32:12Z,42.805,6.029,13.3030,4.60017,2470.273,2021-7-04T13:33:27Z
2021-07-04T11:35:15Z,42.805,6.029,13.3022,4.60026,2470.31,2021-7-04T13:36:30Z
2021-07-04T11:38:18Z,42.805,6.029,13.3024,4.60022,2470.31,2021-7-04T13:39:33Z
2021-07-04T11:41:21Z,42.805,6.029,13.3024,4.60028,2470.287,2021-7-04T13:42:36Z
2021-07-04T11:44:24Z,42.805,6.029,13.3028,4.60019,2470.334,2021-7-04T13:45:40Z
2021-07-04T11:47:28Z,42.805,6.029,13.3026,4.60026,2470.31,2021-7-04T13:48:43Z
2021-07-04T11:50:31Z,42.805,6.029,13.3026,4.60026,2470.31,2021-7-04T13:51:46Z
2021-07-04T11:53:34Z,42.805,6.029,13.3024,4.60023,2470.273,2021-7-04T13:54:49Z
2021-07-04T11:56:37Z,42.805,6.029,13.3032,4.60036,2470.32,2021-7-04T13:57:52Z
2021-07-04T11:59:40Z,42.805,6.029,13.3014,4.60024,2470.31,2021-7-04T14:00:55Z
2021-07-04T12:02:43Z,42.805,6.029,13.3022,4.60020,2470.32,2021-7-04T14:03:58Z
2021-07-04T12:05:46Z,42.805,6.029,13.3018,4.60016,2470.31,2021-7-04T14:07:01Z
2021-07-04T12:08:49Z,42.805,6.029,13.3029,4.60018,2470.273,2021-7-04T14:10:05Z
2021-07-04T12:11:53Z,42.805,6.029,13.3027,4.60029,2470.31,2021-7-04T14:13:08Z
2021-07-04T12:14:56Z,42.805,6.029,13.3028,4.60022,2470.297,2021-7-04T14:16:11Z
2021-07-04T12:17:59Z,42.805,6.029,13.3023,4.60035,2470.297,2021-7-04T14:19:14Z
2021-07-04T12:21:02Z,42.805,6.029,13.3021,4.60031,2470.334,2021-7-04T14:22:17Z
2021-07-04T12:24:05Z,42.805,6.029,13.3019,4.60027,2470.31,2021-7-04T14:25:20Z
2021-07-04T12:27:08Z,42.805,6.029,13.3020,4.60022,2470.334,2021-7-04T14:28:23Z
2021-07-04T12:30:11Z,42.805,6.029,13.3019,4.60041,2470.297,2021-7-04T14:31:26Z
2021-07-04T12:33:14Z,42.805,6.029,13.3033,4.60055,2470.334,2021-7-04T14:34:29Z
2021-07-04T12:36:18Z,42.805,6.029,13.3031,4.60027,2470.357,2021-7-04T14:37:33Z
2021-07-04T12:39:21Z,42.805,6.029,13.3041,4.60027,2470.32,2021-7-04T14:40:36Z
2021-07-04T12:42:24Z,42.805,6.029,13.3040,4.60042,2470.31,2021-7-04T14:43:39Z
2021-07-04T12:45:27Z,42.805,6.029,13.3043,4.60029,2470.343,2021-7-04T14:46:42Z
2021-07-04T12:48:30Z,42.805,6.029,13.3027,4.60029,2470.357,2021-7-04T14:49:45Z
2021-07-04T12:51:33Z,42.805,6.029,13.3027,4.60031,2470.297,2021-7-04T14:52:48Z
2021-07-04T12:54:36Z,42.805,6.029,13.3031,4.60045,2470.32,2021-7-04T14:55:51Z
2021-07-04T12:57:39Z,42.805,6.029,13.3040,4.60042,2470.297,2021-7-04T14:58:54Z
2021-07-04T13:00:43Z,42.805,6.029,13.3021,4.60053,2470.32,2021-7-04T15:01:58Z
2021-07-04T13:03:46Z,42.805,6.029,13.3039,4.60031,2470.32,2021-7-04T15:05:01Z
2021-07-04T13:06:49Z,42.805,6.029,13.3029,4.60039,2470.31,2021-7-04T15:08:04Z
2021-07-04T13:09:52Z,42.805,6.029,13.3038,4.60038,2470.334,2021-7-04T15:11:07Z
2021-07-04T13:12:55Z,42.805,6.029,13.3054,4.60031,2470.334,2021-7-04T15:14:10Z
2021-07-04T13:15:58Z,42.805,6.029,13.3060,4.60037,2470.357,2021-7-04T15:17:13Z
2021-07-04T13:19:01Z,42.805,6.029,13.3040,4.60034,2470.297,2021-7-04T15:20:16Z
2021-07-04T13:22:04Z,42.805,6.029,13.3051,4.60032,2470.334,2021-7-04T15:23:19Z
2021-07-04T13:25:07Z,42.805,6.029,13.3035,4.60031,2470.357,2021-7-04T15:26:23Z
2021-07-04T13:28:11Z,42.805,6.029,13.3029,4.60020,2470.32,2021-7-04T15:29:26Z
2021-07-04T13:31:14Z,42.805,6.029,13.3031,4.60039,2470.334,2021-7-04T15:32:29Z
2021-07-04T13:34:17Z,42.805,6.029,13.3031,4.60035,2470.334,2021-7-04T15:35:32Z
2021-07-04T13:37:20Z,42.805,6.029,13.3032,4.60023,2470.343,2021-7-04T15:38:35Z
2021-07-04T13:40:23Z,42.805,6.029,13.3040,4.60023,2470.343,2021-7-04T15:41:38Z
2021-07-04T13:43:26Z,42.805,6.029,13.3020,4.60027,2470.343,2021-7-04T15:44:41Z
2021-07-04T13:46:29Z,42.805,6.029,13.3021,4.60022,2470.343,2021-7-04T15:47:44Z
2021-07-04T13:49:33Z,42.805,6.029,13.3030,4.60031,2470.366,2021-7-04T15:50:48Z
2021-07-04T13:52:36Z,42.805,6.029,13.3029,4.60034,2470.343,2021-7-04T15:53:51Z
2021-07-04T13:55:39Z,42.805,6.029,13.3035,4.60035,2470.334,2021-7-04T15:56:54Z
2021-07-04T13:58:42Z,42.805,6.029,13.3056,4.60039,2470.357,2021-7-04T15:59:57Z
2021-07-04T14:01:45Z,42.805,6.029,13.3035,4.60023,2470.343,2021-7-04T16:03:00Z
2021-07-04T14:04:48Z,42.805,6.029,13.3034,4.60027,2470.343,2021-7-04T16:06:03Z
2021-07-04T14:07:51Z,42.805,6.029,13.3039,4.60055,2470.38,2021-7-04T16:09:06Z
2021-07-04T14:10:54Z,42.805,6.029,13.3024,4.60053,2470.366,2021-7-04T16:12:09Z
2021-07-04T14:13:57Z,42.805,6.029,13.3039,4.60045,2470.32,2021-7-04T16:15:13Z
2021-07-04T14:17:01Z,42.805,6.029,13.3039,4.60024,2470.334,2021-7-04T16:18:16Z
2021-07-04T14:20:04Z,42.805,6.029,13.3036,4.60050,2470.343,2021-7-04T16:21:19Z
2021-07-04T14:23:07Z,42.805,6.029,13.3051,4.60031,2470.343,2021-7-04T16:24:22Z
2021-07-04T14:26:10Z,42.805,6.029,13.3054,4.60026,2470.32,2021-7-04T16:27:25Z
2021-07-04T14:29:13Z,42.805,6.029,13.3035,4.60033,2470.343,2021-7-04T16:30:28Z
2021-07-04T14:32:16Z,42.805,6.029,13.3015,4.60029,2470.334,2021-7-04T16:33:31Z
2021-07-04T14:35:19Z,42.805,6.029,13.3016,4.60026,2470.38,2021-7-04T16:36:34Z
2021-07-04T14:38:22Z,42.805,6.029,13.3034,4.60016,2470.357,2021-7-04T16:39:38Z
2021-07-04T14:41:26Z,42.805,6.029,13.3025,4.60041,2470.38,2021-7-04T16:42:41Z
2021-07-04T14:44:29Z,42.805,6.029,13.3013,4.60031,2470.39,2021-7-04T16:45:44Z
2021-07-04T14:47:32Z,42.805,6.029,13.3033,4.60021,2470.366,2021-7-04T16:48:47Z
2021-07-04T14:50:35Z,42.805,6.029,13.3021,4.60019,2470.404,2021-7-04T16:51:50Z
2021-07-04T14:53:38Z,42.805,6.029,13.3044,4.60052,2470.357,2021-7-04T16:54:53Z
2021-07-04T14:56:41Z,42.805,6.029,13.3029,4.60052,2470.32,2021-7-04T16:57:56Z
2021-07-04T14:59:44Z,42.805,6.029,13.3029,4.60053,2470.366,2021-7-04T17:00:59Z
2021-07-04T15:02:47Z,42.805,6.029,13.3029,4.60024,2470.343,2021-7-04T17:04:03Z
2021-07-04T15:05:51Z,42.805,6.029,13.3046,4.60034,2470.357,2021-7-04T17:07:06Z
2021-07-04T15:08:54Z,42.805,6.029,13.3031,4.60053,2470.366,2021-7-04T17:10:09Z
2021-07-04T15:11:57Z,42.805,6.029,13.3019,4.60062,2470.334,2021-7-04T17:13:12Z
2021-07-04T15:15:00Z,42.805,6.029,13.3034,4.60071,2470.404,2021-7-04T17:16:15Z